Regional Weather Roundup
Issued by NWS Charleston, SC

Current Version | Previous Version | Text Only | Print | Product List | Glossary Off
Versions: 1 2 3 4 5 6 7 8 9 10 11 12 13 14 15 16 17 18 19 20 21 22 23 24 25 26 27 28 29 30 31 32 33 34 35 36 37 38 39 40 41 42 43 44 45 46 47 48 49 50
000 ASUS42 KCHS 270828 RWRCHS REGIONAL WEATHER ROUNDUP NATIONAL WEATHER SERVICE CHARLESTON SC 400 AM EDT WED JUL 27 2016 NOTE: "FAIR" INDICATES FEW OR NO CLOUDS BELOW 12,000 FEET WITH NO SIGNIFICANT WEATHER AND/OR OBSTRUCTIONS TO VISIBILITY. NOT ALL STATIONS ARE QUALITY CONTROLLED. USE DATA WITH CAUTION... ESPECIALLY DEWPOINT OBSERVATIONS. SCZ027-030-031-034>040-042>050-270900- ...SOUTHEAST SOUTH CAROLINA... CITY SKY/WX TMP DP RH WIND PRES REMARKS N CHARLESTON CLEAR 81 75 82 SW8 30.02S WATERFRONT PRK N/A 83 78 84 VRB3 30.00S HX 93 MOUNT PLEASANT FAIR 82 79 89 SW6 30.02S HX 93 JOHNS ISLAND FAIR 82 77 83 CALM 30.02F HX 91 PINOPOLIS N/A 81 79 94 SW8 29.94F MONCKS CORNER FAIR 77 72 83 SW6 30.02R SUMMERVILLE FAIR 77 77 100 CALM 30.03S BEAUFORT MCAS CLEAR 81 73 76 SW10 30.03S BEAUFORT ARPT FAIR 82 73 74 W10 30.03S HILTON HEAD IS CLEAR 82 75 78 W6 30.04S WALTERBORO SUNNY 81 79 94 SW6 30.03S ALLENDALE FAIR 79 75 89 CALM 30.02F ...SOUTHERN MIDLANDS AND PEE DEE... CITY SKY/WX TMP DP RH WIND PRES REMARKS GEORGETOWN FAIR 77 73 88 SW5 30.02S KINGSTREE FAIR 77 72 83 CALM 30.01S ORANGEBURG CLEAR 77 74 90 SW5 30.02F BARNWELL NOT AVBL AIKEN FAIR 75 70 83 SW3 30.05F MANNING FAIR 79 73 83 SW6 30.01S COLUMBIA CLEAR 81 72 74 SW5 30.00S SUMTER CLEAR 80 73 80 SW8 29.98F FLORENCE CLEAR 80 74 81 SW8 29.99F MYRTLE BEACH CLEAR 81 70 69 W9 30.01F N MYRTLE BEACH CLEAR 81 74 79 W7 29.99F $$ GAZ063-065-086>088-099>101-113>116-118-119-134>141-150-270900- ...SOUTHEAST GEORGIA... CITY SKY/WX TMP DP RH WIND PRES REMARKS SAVANNAH ARPT CLEAR 79 73 82 W7 30.04F HUNTER AAF CLEAR 79 76 91 SW7 30.02S FORT STEWART CLEAR 78 73 83 SW6 30.03S STATESBORO CLEAR 79 74 84 CALM 30.04S SYLVANIA NOT AVBL CLAXTON FAIR 76 75 97 SW3 30.05S ...CSRA...CENTRAL AND FAR SOUTHEAST GEORGIA... CITY SKY/WX TMP DP RH WIND PRES REMARKS THOMSON NOT AVBL AUGUSTA-BUSH CLEAR 74 72 93 S3 30.01F AUGUSTA-DANIEL CLEAR 82 71 69 SW5 30.03F SWAINSBORO FAIR 77 72 83 CALM 30.06S VIDALIA CLEAR 77 72 83 SW3 30.06S EASTMAN FAIR 76 76 100 CALM 30.07F HAZLEHURST FAIR 78 75 92 CALM 30.05S ALMA CLEAR 74 72 93 CALM 30.06S WAYCROSS CLEAR 78 77 96 CALM 30.06S JESUP FAIR 75 75 100 CALM 30.06S BAXLEY FAIR 77 77 100 CALM 30.06S BRUNSWICK CLEAR 79 77 94 CALM 30.06F SAINT SIMONS CLEAR 80 74 81 W6 30.06F $$ SCZ027-028-034-036>038-045-046-048>050-GAZ119-141-270900- ...LAKE AND SUPPLEMENTAL COASTAL OBSERVATIONS... STATION/POSITION TIME TEMP WIND PRES WAVE SWELL AIR SEA DIR/SP/G HT/PER HT/PER/DIR (UTC) (F) (DEG/KT/KT) (MB) (FT/S) (FT/S/D) WINYAH BAY 0700 81 250/ 6 1016.0R LAKE MURRAY NOT AVBL ACE BASIN NERRS 0700 83 240/ 2 1017.0S FORT PULASKI 0800 82 87 240/ 5/ 8 1017.6F SAPELO ISLAND 0800 81 240/ 8 1018.0S $$ ANZ835-935-AMZ111-154-330-350-352-354-370-450-454-472-270900- ...C-MAN AND BUOY OBSERVATIONS... STATION/POSITION TIME TEMP WIND PRES WAVE SWELL AIR SEA DIR/SP/G HT/PER HT/PER/DIR (UTC) (F) (DEG/KT/KT) (MB) (FT/S) (FT/S/D) BUOY 41004 0750 85 86 240/ 17/ 19 1015.9F 4/ 5 BUOY 41008 0750 85 87 240/ 16/ 19 1017.0F 2/ 4 FOLLY BEACH CMAN 0800 84 240/ 8/ 11 1016.6F CAPERS NEARSHORE 0808 84 83 260/ 14/ 17 1016.3R FRIPP NEARSHORE 0708 86 87 250/ 17/ 23 1016.2F STATION/POSITION TIME TEMP WIND PRES WAVE SWELL AIR SEA DIR/SP/G HT/PER HT/PER/DIR (UTC) (F) (DEG/KT/KT) (MB) (FT/S) (FT/S/D) 5E ST. MARYS GA 0801 86 N/A 2/ 5 FRYING PAN BUOY 0800 85 85 240/ 17/ 23 1015.6F BUOY 41025 0750 84 85 250/ 16/ 19 1014.6R 4/ 5 CAPE LOOKOUT NC 0800 83 250/ 10/ 13 1014.9R BUOY 41002 0750 84 84 250/ 14/ 16 1017.0F 3/ 4 2/120/ 8 BUOY 41010 0720 84 86 190/ 10/ 12 1018.2F ST AUGUSTINE FL 0800 79 84 240/ 4/ 5 1018.9F $$

USA.gov is the U.S. government's official web portal to all federal, state and local government web resources and services.